Погода в Томмоте

Погода в Томмоте : погода сейчас, прогноз погоды и архив. Всё, что Вы хотите узнать о погоде в Томмоте!

Поиск расширенной информации на нашем сайте:

Другие новости

Новости СМИ2

Главная страница сайта

Новости сайта

03.07.2017

Напоминаем, что на нашем специализированном сайте Метеоцентр.Азия вы можете получить высокодетализированные автоматические прогнозы погоды по пунктам России, СНГ и мира в авиационном формате (включающие направление и скорость ветра, видимость, явления погоды, количество и форму облачности, нижнюю и верхнюю границу облачности).

Рекомендуем: Смотрите подробности газонокосилки сабо ремонт тут.

Погода в Томмоте - сегодня

Время (UTC), дата Ветер
(°,м/с) 
Видим.   Явления Облачность Т
(°С)
Тd
(°С)
f(%) Тe
(°С)
Pmin
(гПа)
dP
(гПа)
Po
(мм)
O2
(г/м3)
Тmin Tmax R s Состояние
почвы
12 20.09.17 180 (Ю) 20000 м    10/10 600 м кучево-дожд. 
[Cb cap]
-1.6 -2.8 92 -1  1014.2  0.5  734  298    +6       
15 20.09.17 130 (ЮВ) 20000 м    10/10 600 м кучево-дожд. 
[Cb cap]
-0.6 -1.2 96 1014.4  0.3  734  297           
18 20.09.17 150 (ЮВ) 20000 м    10/10 600 м кучево-дожд. 
[Cb cap]
-1 -1.9 94 1014.5  734  297           
21 20.09.17 150 (ЮВ) 20000 м    10/10 600 м кучево-дожд. 
[Cb cap]
-1 -1.9 94 1014.4  -0.1  734  297           
00 21.09.17 210 (ЮЗ) 20000 м    10/10 1000 м 
[Sc]
+0.9 -0.5 90 +2  1014.2  0.2  734  295  -1.6        влажная 
03 21.09.17 300 (СЗ) 20000 м    10/6 600 м кучево-дожд., верхняя 
[Cb cap|Ci fib]
+6.3 -2.1 55 +6  1013.2  -0.4  734  289           
06 21.09.17 310 (СЗ) 20000 м    10/10 600 м кучево-дожд. 
[Cb cap]
+7.5 -4.8 41 +8  1012.4  -0.7  734  288           
09 21.09.17 070 (В) 20000 м    10/1 1000 м средняя, верхняя 
[Sc|Ac trans|Ci]
+7.1 -2.8 49 +8  1012.5  0.1  734  288           
12 21.09.17 010 (С) 20000 м    6/0 верхняя 
[Ci]
-1.7 -2.9 91 -1  1014.4  0.8  734  298    +7.7       
15 21.09.17 020 (С) 20000 м    ясно 
-4.7 -6.3 89 -4  1015.6  0.8  735  302           
18 21.09.17 тихо ()   20000 м    ясно 
-7.7 -9.1 90 -8  1015.8  -0.2  735  306           
21 21.09.17 тихо ()   20000 м    ясно 
-9.5 -10.7 91 -10  1015.9  -0.2  735  308           
00 22.09.17 190 (Ю) 20000 м    6/0 верхняя 
[Ci]
-3.5 -4.3 94 -3  1014.5  -0.6  734  300  -9.5        замёрзшая 
03 22.09.17 150 (ЮВ) 20000 м    4/3 1000 м верхняя 
[Sc|Ci fib]
+8.3 -3.9 42 +8  1009.8  -3  732  287           
06 22.09.17 090 (В) 20000 м    4/3 2000 м средняя, верхняя 
[Ac trans|Ci fib]
+10.6 -2.1 41 +10  1007.6  -1.9  730  283           
09 22.09.17 090 (В) 20000 м    10/8 600 м кучево-дожд., верхняя 
[Cb cap|Ci fib]
+9.9 -2.8 41 +10  1007  -0.7  730  284           
12 22.09.17 120 (ЮВ) 20000 м    10/8 600 м кучево-дожд., верхняя 
[Cb cap|Ci fib]
+8.1 -1.6 50 +9  1007.1  730  286    +10.7       
15 22.09.17 160 (Ю) 20000 м    10/6 600 м кучево-дожд., верхняя 
[Cb cap|Ci fib]
+5.7 -1 62 +7  1006.3  -1.2  729  288           
18 22.09.17 150 (ЮВ) 20000 м    10/6 600 м кучево-дожд., верхняя 
[Cb cap|Ci fib]
+5.6 -1.4 61 +6  1004  -2.2  727  287           
21 22.09.17 140 (ЮВ) 20000 м    10/10 600 м кучево-дожд. 
[Cb cap]
+5.8 -1.2 61 +7  1003.3  -0.7  727  287           
00 23.09.17 230 (ЮЗ) 20000 м    10/8 600 м кучево-дожд., средняя 
[Cb cap|Ac trans]
+6.6 +0.5 65 +8  1002.7  -0.5  726  286  +3.8        влажная 
03 23.09.17 230 (ЮЗ) 20000 м    10/8 600 м кучево-дожд., средняя 
[Cb cap|Ac trans]
+9.2 +2.9 65 +10  1001  -1.2  726  282           
06 23.09.17 180 (Ю) 20000 м    10/6 600 м кучево-дожд., средняя 
[Cb cap|Ac trans]
+11.1 +3.4 59 +12  1000.4  -0.4  725  280           
09 23.09.17 230 (ЮЗ) 20000 м    10/8 600 м кучево-дожд., средняя 
[Cb cap|Ac trans]
+10.3 +3.2 61 +11  1001.2  0.7  726  281           
12 23.09.17 тихо ()   20000 м  слаб. ливневой дождь  10/10 600 м кучево-дожд. 
[Cb cap]
+7.9 +4 76 +8  1002.9  1.4  727  284    +11.4  0.0     
Время (UTC), дата Ветер
(°,м/с) 
Видим.   Явления Облачность Т
(°С)
Тd
(°С)
f(%) Тe
(°С)
Pmin
(гПа)
dP
(гПа)
Po
(мм)
O2
(г/м3)
Тmin Tmax R s Состояние
почвы

Для получения пояснительной информации подведите курсор к названию столбца.

ПОГОДА в Томмоте - архив

Всё, что Вы хотите узнать о погоде в Томмоте - удобно и подробно!

Выберите нужную дату (начиная с 1 января 2015* года) и нажмите кнопку "Найти".
Будут отображены архивные сводки погоды по пункту Томмот, начиная с указанной даты.


Отображать данные в формате CSV (для использования в таблицах Excel)


Внимание! Наш архив погоды предназначен исключительно для личного некоммерческого использования в познавательных целях. Если Вам необходимы официальные справки о состоянии погоды (для производственных, юридических, коммерческих и т.п. целей), обращайтесь в органы Росгидромета.

*Примечание: данная дата относится к архиву по метеостанциям СССР (Россия, СНГ, Балтия).
Архив по метеостанциям Зарубежной Европы и Азии (кроме Китая) хранится 10 дней, по другим регионам земного шара (Китай, Африка, Америка, Австралия, Океания) - 1 день.

Томмот - район местоположения метеостанции


Название, широта, долгота, высота метеостанции:
Томмот 58.9°ш. 126.3°д. 283 м над ур. моря [Российская Федерация]

Дополнительная информация

В oтличие oт бoльшинства пoгoдных сайтoв мы публикуем пoдрoбную метеoинфoрмацию в детальнoм прoфессиoнальнoм фoрмате.

Характеристики температуры и влажнoсти вoздуха измеряются на высoте 2 м в тени вдали oт зданий и деревьев.
Скoрoсть ветра измеряется на высoте 10 м (на урoвне рoста челoвека скoрoсть ветра ниже в 1.5-2 раза). Если метеoстанция нахoдится в гoрoде или в лесу, тo скoрoсть ветра занижена на 2-4 м/с пo сравнению с oткрытым местoм. Скoрoсть ветра над акватoриями крупных рек и oзёр, а также на вершинах хoлмoв на 2-5 м/с выше, чем в oбычных услoвиях.
Атмoсфернoе давление в разных тoчках местнoсти мoжет значительнo oтличаться oт давления на метеoстанции, в зависимoсти oт услoвий рельефа (при пoдъёме на 10 м давление пoнижается примернo на 1 мм рт.ст.).